contact: severine.martini@mio.osupytheas.fr, dominique.lefevre@mio.osupytheas.fr
Project:EMSO Ligure-ouest http://www.emso-fr.org/EMSO-France
Sensor Optode, line 4330 Serial 272 
DOI : "https://doi.org/10.17882/97948" 
Title:EMSO Ligure Ouest : Data BathyDock capteur Optode - deploiement "2023-04-28"
Datetime,Profondeur,Latitude,Longitude,optode_type,serial,O2_concentration,O2_saturation,Temperature,Calibrated_Phase,Temp_Compensated_Phase,phase_blue_light,phase_red_light,Amplitude_blue_light,Amplitude_red_light,thermistor_bridge
time,m,degree_north,degree_east,1,1,umol.l-1,%,degree_C,degree,degree,degree,degree,mV,mV,mV
2023-12-10T00:00:07,2420,42.8014,5.9826,4330,272,186.396,57.084,13.307,36.045,36.625,41.216,4.591,295.7,545.0,291.3
2023-12-10T00:03:08,2420,42.8014,5.9826,4330,272,186.384,57.079,13.306,36.047,36.627,41.212,4.585,295.8,545.0,291.4
2023-12-10T00:06:07,2420,42.8014,5.9826,4330,272,186.194,57.022,13.307,36.058,36.638,41.225,4.587,295.8,545.1,291.3
2023-12-10T00:09:07,2420,42.8014,5.9826,4330,272,186.343,57.065,13.305,36.050,36.630,41.217,4.588,295.7,545.1,291.4
2023-12-10T00:12:07,2420,42.8014,5.9826,4330,272,186.141,57.004,13.305,36.063,36.643,41.229,4.587,295.8,545.0,291.4
2023-12-10T00:15:07,2420,42.8014,5.9826,4330,272,186.367,57.075,13.306,36.048,36.628,41.216,4.588,295.7,545.0,291.3
2023-12-10T00:18:07,2420,42.8014,5.9826,4330,272,186.416,57.088,13.306,36.045,36.625,41.213,4.588,295.7,545.1,291.4
2023-12-10T00:21:07,2420,42.8014,5.9826,4330,272,186.448,57.096,13.304,36.044,36.624,41.210,4.586,295.8,545.1,291.4
2023-12-10T00:24:07,2420,42.8014,5.9826,4330,272,186.478,57.107,13.305,36.041,36.621,41.208,4.587,295.7,545.1,291.4
2023-12-10T00:27:08,2420,42.8014,5.9826,4330,272,186.417,57.088,13.305,36.045,36.625,41.209,4.584,295.8,545.0,291.4
2023-12-10T00:30:08,2420,42.8014,5.9826,4330,272,186.372,57.075,13.305,36.048,36.628,41.217,4.589,295.7,545.0,291.4
2023-12-10T00:33:07,2420,42.8014,5.9826,4330,272,186.307,57.057,13.307,36.051,36.631,41.221,4.590,295.7,545.1,291.3
2023-12-10T00:36:07,2420,42.8014,5.9826,4330,272,186.555,57.129,13.304,36.036,36.616,41.207,4.591,295.7,545.1,291.4
2023-12-10T00:39:07,2420,42.8014,5.9826,4330,272,186.499,57.112,13.304,36.040,36.620,41.208,4.589,295.6,545.1,291.4
2023-12-10T00:42:07,2420,42.8014,5.9826,4330,272,186.378,57.075,13.305,36.048,36.628,41.211,4.583,295.7,545.1,291.4
2023-12-10T00:45:07,2420,42.8014,5.9826,4330,272,186.620,57.148,13.304,36.032,36.612,41.203,4.590,295.7,545.1,291.4
2023-12-10T00:48:07,2420,42.8014,5.9826,4330,272,186.335,57.061,13.304,36.051,36.631,41.220,4.589,295.7,545.1,291.4
2023-12-10T00:51:08,2420,42.8014,5.9826,4330,272,186.577,57.136,13.304,36.035,36.615,41.206,4.592,295.8,545.1,291.4
2023-12-10T00:54:08,2420,42.8014,5.9826,4330,272,186.460,57.100,13.304,36.042,36.622,41.207,4.585,295.6,545.0,291.4
2023-12-10T00:57:08,2420,42.8014,5.9826,4330,272,186.236,57.032,13.305,36.057,36.637,41.227,4.589,295.7,545.1,291.4
2023-12-10T01:00:08,2420,42.8014,5.9826,4330,272,186.473,57.104,13.304,36.041,36.621,41.211,4.589,295.7,545.1,291.4
2023-12-10T01:03:07,2420,42.8014,5.9826,4330,272,186.249,57.033,13.302,36.057,36.637,41.228,4.591,295.7,545.1,291.5
2023-12-10T01:06:07,2420,42.8014,5.9826,4330,272,186.555,57.129,13.304,36.037,36.617,41.201,4.584,295.7,545.1,291.4
2023-12-10T01:09:07,2420,42.8014,5.9826,4330,272,186.570,57.133,13.304,36.036,36.616,41.204,4.588,295.7,545.1,291.4
2023-12-10T01:12:07,2420,42.8014,5.9826,4330,272,186.643,57.157,13.305,36.031,36.611,41.196,4.586,295.8,545.1,291.4
2023-12-10T01:15:08,2420,42.8014,5.9826,4330,272,186.270,57.042,13.304,36.055,36.635,41.222,4.587,295.7,545.0,291.4
2023-12-10T01:18:08,2420,42.8014,5.9826,4330,272,186.685,57.169,13.305,36.028,36.608,41.200,4.592,295.7,545.2,291.4
2023-12-10T01:21:08,2420,42.8014,5.9826,4330,272,186.673,57.164,13.303,36.029,36.609,41.200,4.590,295.7,545.1,291.5
2023-12-10T01:24:08,2420,42.8014,5.9826,4330,272,186.424,57.087,13.302,36.046,36.626,41.212,4.587,295.7,545.1,291.5
2023-12-10T01:27:07,2420,42.8014,5.9826,4330,272,186.511,57.115,13.303,36.040,36.620,41.209,4.588,295.7,545.1,291.4
2023-12-10T01:30:07,2420,42.8014,5.9826,4330,272,186.577,57.135,13.304,36.035,36.615,41.206,4.590,295.6,545.1,291.4
2023-12-10T01:33:08,2420,42.8014,5.9826,4330,272,186.445,57.097,13.305,36.043,36.623,41.209,4.586,295.7,545.0,291.4
2023-12-10T01:36:07,2420,42.8014,5.9826,4330,272,186.502,57.112,13.304,36.040,36.620,41.206,4.586,295.6,545.1,291.4
2023-12-10T01:39:07,2420,42.8014,5.9826,4330,272,186.704,57.174,13.303,36.027,36.607,41.197,4.590,295.6,545.1,291.5
2023-12-10T01:42:07,2420,42.8014,5.9826,4330,272,186.443,57.094,13.304,36.044,36.624,41.208,4.585,295.7,545.1,291.4
2023-12-10T01:45:07,2420,42.8014,5.9826,4330,272,186.323,57.056,13.303,36.052,36.632,41.217,4.585,295.7,545.1,291.5
2023-12-10T01:48:07,2420,42.8014,5.9826,4330,272,186.445,57.094,13.303,36.044,36.624,41.211,4.587,295.6,545.1,291.5
2023-12-10T01:51:08,2420,42.8014,5.9826,4330,272,186.412,57.084,13.303,36.046,36.626,41.213,4.587,295.7,545.1,291.5
2023-12-10T01:54:08,2420,42.8014,5.9826,4330,272,186.480,57.106,13.304,36.042,36.622,41.209,4.587,295.6,545.1,291.4
2023-12-10T01:57:08,2420,42.8014,5.9826,4330,272,186.459,57.097,13.302,36.044,36.624,41.217,4.594,295.7,545.1,291.5
2023-12-10T02:00:08,2420,42.8014,5.9826,4330,272,186.448,57.097,13.304,36.044,36.624,41.213,4.589,295.6,545.1,291.4
2023-12-10T02:03:07,2420,42.8014,5.9826,4330,272,186.408,57.083,13.303,36.046,36.626,41.207,4.581,295.7,545.1,291.4
2023-12-10T02:06:07,2420,42.8014,5.9826,4330,272,186.570,57.132,13.303,36.036,36.616,41.201,4.585,295.7,545.0,291.5
2023-12-10T02:09:07,2420,42.8014,5.9826,4330,272,186.423,57.086,13.302,36.046,36.626,41.207,4.582,295.6,545.1,291.5
2023-12-10T02:12:07,2420,42.8014,5.9826,4330,272,186.491,57.109,13.304,36.041,36.621,41.208,4.587,295.7,545.1,291.4
2023-12-10T02:15:07,2420,42.8014,5.9826,4330,272,186.400,57.079,13.302,36.048,36.628,41.215,4.587,295.7,545.1,291.5
2023-12-10T02:18:07,2420,42.8014,5.9826,4330,272,186.544,57.124,13.303,36.038,36.618,41.207,4.590,295.8,545.1,291.5
2023-12-10T02:21:07,2420,42.8014,5.9826,4330,272,186.499,57.111,13.304,36.040,36.620,41.207,4.587,295.7,545.1,291.4
2023-12-10T02:24:07,2420,42.8014,5.9826,4330,272,186.414,57.084,13.302,36.046,36.626,41.213,4.587,295.7,545.1,291.5
2023-12-10T02:27:07,2420,42.8014,5.9826,4330,272,186.499,57.112,13.304,36.040,36.620,41.214,4.594,295.7,545.0,291.4
2023-12-10T02:30:07,2420,42.8014,5.9826,4330,272,186.558,57.127,13.302,36.037,36.617,41.207,4.590,295.6,545.1,291.5
2023-12-10T02:33:07,2420,42.8014,5.9826,4330,272,186.392,57.078,13.303,36.047,36.627,41.216,4.588,295.6,545.1,291.5
2023-12-10T02:36:07,2420,42.8014,5.9826,4330,272,186.383,57.075,13.303,36.048,36.628,41.212,4.584,295.7,545.1,291.5
2023-12-10T02:39:07,2420,42.8014,5.9826,4330,272,186.466,57.102,13.304,36.042,36.622,41.208,4.586,295.7,545.1,291.4
2023-12-10T02:42:07,2420,42.8014,5.9826,4330,272,186.432,57.090,13.303,36.045,36.625,41.209,4.584,295.7,545.2,291.4
2023-12-10T02:45:08,2420,42.8014,5.9826,4330,272,186.507,57.114,13.304,36.040,36.620,41.207,4.587,295.6,545.1,291.4
2023-12-10T02:48:08,2420,42.8014,5.9826,4330,272,186.298,57.050,13.304,36.053,36.633,41.221,4.588,295.8,545.2,291.4
2023-12-10T02:51:08,2420,42.8014,5.9826,4330,272,186.582,57.136,13.303,36.035,36.615,41.201,4.586,295.7,545.1,291.4
2023-12-10T02:54:08,2420,42.8014,5.9826,4330,272,186.376,57.072,13.302,36.049,36.629,41.211,4.583,295.7,545.1,291.5
2023-12-10T02:57:08,2420,42.8014,5.9826,4330,272,186.294,57.048,13.303,36.054,36.634,41.212,4.578,295.7,545.1,291.4
2023-12-10T03:00:08,2420,42.8014,5.9826,4330,272,186.456,57.098,13.303,36.044,36.624,41.208,4.584,295.7,545.1,291.4
2023-12-10T03:03:07,2420,42.8014,5.9826,4330,272,186.498,57.111,13.304,36.041,36.621,41.215,4.594,295.8,545.1,291.4
2023-12-10T03:06:08,2420,42.8014,5.9826,4330,272,186.442,57.095,13.304,36.044,36.624,41.209,4.584,295.7,545.1,291.4
2023-12-10T03:09:07,2420,42.8014,5.9826,4330,272,186.447,57.096,13.304,36.044,36.624,41.210,4.586,295.7,545.1,291.4
2023-12-10T03:12:07,2420,42.8014,5.9826,4330,272,186.292,57.048,13.304,36.054,36.634,41.219,4.585,295.7,545.2,291.4
2023-12-10T03:15:07,2420,42.8014,5.9826,4330,272,186.621,57.148,13.303,36.033,36.613,41.195,4.583,295.7,545.1,291.4
2023-12-10T03:18:07,2420,42.8014,5.9826,4330,272,186.626,57.150,13.303,36.032,36.613,41.198,4.585,295.7,545.1,291.4
2023-12-10T03:21:07,2420,42.8014,5.9826,4330,272,186.475,57.103,13.303,36.042,36.622,41.207,4.585,295.7,545.1,291.5
2023-12-10T03:24:07,2420,42.8014,5.9826,4330,272,186.497,57.109,13.302,36.041,36.621,41.213,4.592,295.7,545.1,291.5
2023-12-10T03:27:07,2420,42.8014,5.9826,4330,272,186.395,57.079,13.303,36.047,36.627,41.212,4.585,295.7,545.1,291.4
2023-12-10T03:30:07,2420,42.8014,5.9826,4330,272,186.233,57.029,13.303,36.058,36.638,41.220,4.582,295.7,545.1,291.5
2023-12-10T03:33:07,2420,42.8014,5.9826,4330,272,186.658,57.160,13.304,36.030,36.610,41.203,4.593,295.6,545.1,291.4
2023-12-10T03:36:07,2420,42.8014,5.9826,4330,272,186.368,57.073,13.305,36.048,36.628,41.216,4.588,295.7,545.1,291.4
2023-12-10T03:39:07,2420,42.8014,5.9826,4330,272,186.426,57.088,13.303,36.046,36.626,41.209,4.583,295.7,545.1,291.5
2023-12-10T03:42:07,2420,42.8014,5.9826,4330,272,186.165,57.008,13.303,36.062,36.642,41.230,4.588,295.7,545.1,291.5
2023-12-10T03:45:07,2420,42.8014,5.9826,4330,272,186.478,57.105,13.304,36.041,36.621,41.207,4.586,295.7,545.1,291.4
2023-12-10T03:48:08,2420,42.8014,5.9826,4330,272,186.402,57.081,13.303,36.047,36.627,41.212,4.585,295.7,545.1,291.5
2023-12-10T03:51:08,2420,42.8014,5.9826,4330,272,186.507,57.114,13.303,36.040,36.620,41.206,4.586,295.7,545.1,291.4
2023-12-10T03:54:08,2420,42.8014,5.9826,4330,272,186.436,57.091,13.303,36.045,36.625,41.208,4.583,295.8,545.1,291.5
2023-12-10T03:57:08,2420,42.8014,5.9826,4330,272,186.451,57.097,13.304,36.044,36.624,41.209,4.586,295.7,545.1,291.4
2023-12-10T04:00:08,2420,42.8014,5.9826,4330,272,186.406,57.082,13.303,36.047,36.627,41.213,4.586,295.8,545.1,291.5
2023-12-10T04:03:07,2420,42.8014,5.9826,4330,272,186.465,57.100,13.303,36.043,36.623,41.210,4.587,295.7,545.1,291.5
2023-12-10T04:06:07,2420,42.8014,5.9826,4330,272,186.511,57.115,13.304,36.040,36.620,41.207,4.587,295.7,545.1,291.4
2023-12-10T04:09:07,2420,42.8014,5.9826,4330,272,186.528,57.118,13.302,36.039,36.619,41.208,4.589,295.7,545.1,291.5
2023-12-10T04:12:07,2420,42.8014,5.9826,4330,272,186.540,57.123,13.303,36.038,36.618,41.204,4.586,295.7,545.1,291.5
2023-12-10T04:15:07,2420,42.8014,5.9826,4330,272,186.449,57.094,13.302,36.044,36.624,41.208,4.583,295.7,545.1,291.5
2023-12-10T04:18:08,2420,42.8014,5.9826,4330,272,186.499,57.110,13.302,36.041,36.621,41.208,4.587,295.7,545.1,291.5
2023-12-10T04:21:08,2420,42.8014,5.9826,4330,272,186.262,57.039,13.304,36.056,36.636,41.222,4.586,295.7,545.0,291.4
2023-12-10T04:24:08,2420,42.8014,5.9826,4330,272,186.747,57.186,13.302,36.025,36.605,41.196,4.591,295.7,545.2,291.5
2023-12-10T04:27:08,2420,42.8014,5.9826,4330,272,186.351,57.064,13.302,36.051,36.631,41.220,4.590,295.7,545.1,291.5
2023-12-10T04:30:07,2420,42.8014,5.9826,4330,272,186.369,57.073,13.305,36.048,36.628,41.215,4.587,295.7,545.1,291.4
2023-12-10T04:33:07,2420,42.8014,5.9826,4330,272,186.229,57.029,13.304,36.058,36.638,41.223,4.585,295.7,545.1,291.4
2023-12-10T04:36:07,2420,42.8014,5.9826,4330,272,186.322,57.057,13.303,36.052,36.632,41.218,4.586,295.8,545.1,291.4
2023-12-10T04:39:07,2420,42.8014,5.9826,4330,272,186.223,57.026,13.303,36.058,36.638,41.221,4.583,295.7,545.1,291.4
2023-12-10T04:42:08,2420,42.8014,5.9826,4330,272,186.333,57.059,13.302,36.051,36.631,41.218,4.587,295.7,545.1,291.5
2023-12-10T04:45:08,2420,42.8014,5.9826,4330,272,186.738,57.184,13.303,36.025,36.605,41.196,4.591,295.7,545.1,291.5
2023-12-10T04:48:08,2420,42.8014,5.9826,4330,272,186.352,57.067,13.304,36.050,36.630,41.216,4.586,295.8,545.1,291.4
2023-12-10T04:51:08,2420,42.8014,5.9826,4330,272,186.571,57.134,13.304,36.035,36.615,41.203,4.588,295.8,545.1,291.4
2023-12-10T04:54:08,2420,42.8014,5.9826,4330,272,186.554,57.131,13.306,36.036,36.616,41.207,4.591,295.7,545.1,291.4
2023-12-10T04:57:07,2420,42.8014,5.9826,4330,272,186.400,57.082,13.304,36.047,36.627,41.216,4.589,295.7,545.1,291.4
2023-12-10T05:00:07,2420,42.8014,5.9826,4330,272,186.150,57.002,13.302,36.064,36.644,41.230,4.586,295.7,545.1,291.5
2023-12-10T05:03:07,2420,42.8014,5.9826,4330,272,186.513,57.115,13.303,36.040,36.620,41.210,4.590,295.7,545.1,291.5
2023-12-10T05:06:07,2420,42.8014,5.9826,4330,272,186.556,57.129,13.304,36.036,36.616,41.206,4.590,295.7,545.1,291.4
2023-12-10T05:09:07,2420,42.8014,5.9826,4330,272,186.363,57.070,13.303,36.050,36.630,41.216,4.586,295.7,545.1,291.4
2023-12-10T05:12:07,2420,42.8014,5.9826,4330,272,186.613,57.146,13.304,36.033,36.613,41.203,4.590,295.8,545.1,291.4
2023-12-10T05:15:07,2420,42.8014,5.9826,4330,272,186.372,57.075,13.306,36.048,36.628,41.219,4.591,295.7,545.1,291.4
2023-12-10T05:18:07,2420,42.8014,5.9826,4330,272,186.473,57.103,13.304,36.042,36.622,41.205,4.583,295.7,545.1,291.4
2023-12-10T05:21:07,2420,42.8014,5.9826,4330,272,186.715,57.177,13.303,36.026,36.606,41.196,4.590,295.8,545.1,291.5
2023-12-10T05:24:07,2420,42.8014,5.9826,4330,272,186.607,57.144,13.304,36.034,36.614,41.206,4.592,295.7,545.0,291.4
2023-12-10T05:27:07,2420,42.8014,5.9826,4330,272,186.363,57.072,13.305,36.049,36.628,41.217,4.589,295.7,545.1,291.4
2023-12-10T05:30:07,2420,42.8014,5.9826,4330,272,186.557,57.130,13.304,36.037,36.617,41.203,4.586,295.7,545.1,291.4
2023-12-10T05:33:07,2420,42.8014,5.9826,4330,272,186.329,57.059,13.303,36.052,36.632,41.219,4.587,295.7,545.2,291.4
2023-12-10T05:36:07,2420,42.8014,5.9826,4330,272,186.514,57.117,13.305,36.039,36.619,41.205,4.586,295.7,545.1,291.4
2023-12-10T05:39:07,2420,42.8014,5.9826,4330,272,186.342,57.064,13.304,36.050,36.630,41.214,4.584,295.7,545.1,291.4
2023-12-10T05:42:07,2420,42.8014,5.9826,4330,272,186.227,57.029,13.305,36.058,36.638,41.226,4.588,295.7,545.1,291.4
2023-12-10T05:45:07,2420,42.8014,5.9826,4330,272,186.429,57.093,13.306,36.043,36.623,41.210,4.587,295.7,545.1,291.4
2023-12-10T05:48:08,2420,42.8014,5.9826,4330,272,186.489,57.110,13.305,36.040,36.620,41.203,4.583,295.7,545.1,291.4
2023-12-10T05:51:08,2420,42.8014,5.9826,4330,272,186.592,57.139,13.303,36.035,36.615,41.201,4.586,295.7,545.2,291.5
2023-12-10T05:54:08,2420,42.8014,5.9826,4330,272,186.477,57.104,13.303,36.042,36.622,41.205,4.584,295.8,545.1,291.5
2023-12-10T05:57:08,2420,42.8014,5.9826,4330,272,186.708,57.175,13.303,36.027,36.607,41.196,4.589,295.7,545.2,291.4
2023-12-10T06:00:08,2420,42.8014,5.9826,4330,272,186.393,57.081,13.306,36.047,36.627,41.214,4.587,295.7,545.1,291.4
2023-12-10T06:03:07,2420,42.8014,5.9826,4330,272,186.539,57.125,13.305,36.037,36.617,41.210,4.593,295.7,545.1,291.4
2023-12-10T06:06:07,2420,42.8014,5.9826,4330,272,186.590,57.138,13.303,36.035,36.615,41.201,4.586,295.7,545.1,291.5
2023-12-10T06:09:07,2420,42.8014,5.9826,4330,272,186.491,57.108,13.303,36.042,36.622,41.213,4.592,295.7,545.1,291.5
2023-12-10T06:12:07,2420,42.8014,5.9826,4330,272,186.348,57.063,13.302,36.051,36.631,41.215,4.584,295.7,545.2,291.5
2023-12-10T06:15:07,2420,42.8014,5.9826,4330,272,186.488,57.109,13.304,36.041,36.621,41.205,4.584,295.7,545.1,291.4
2023-12-10T06:18:08,2420,42.8014,5.9826,4330,272,186.397,57.081,13.304,36.046,36.626,41.220,4.593,295.7,545.2,291.4
2023-12-10T06:21:08,2420,42.8014,5.9826,4330,272,186.669,57.165,13.305,36.029,36.609,41.201,4.592,295.6,545.1,291.4
2023-12-10T06:24:08,2420,42.8014,5.9826,4330,272,186.350,57.067,13.305,36.049,36.629,41.214,4.585,295.7,545.1,291.4
2023-12-10T06:27:08,2420,42.8014,5.9826,4330,272,186.420,57.088,13.304,36.046,36.625,41.212,4.586,295.6,545.1,291.4
2023-12-10T06:30:08,2420,42.8014,5.9826,4330,272,186.459,57.100,13.304,36.043,36.623,41.205,4.582,295.7,545.1,291.4
2023-12-10T06:33:07,2420,42.8014,5.9826,4330,272,186.694,57.172,13.304,36.027,36.607,41.200,4.593,295.7,545.0,291.4
2023-12-10T06:36:07,2420,42.8014,5.9826,4330,272,186.250,57.036,13.304,36.056,36.636,41.219,4.584,295.7,545.0,291.4
2023-12-10T06:39:07,2420,42.8014,5.9826,4330,272,186.351,57.066,13.303,36.050,36.630,41.220,4.589,295.7,545.1,291.4
2023-12-10T06:42:07,2420,42.8014,5.9826,4330,272,186.464,57.100,13.303,36.043,36.623,41.208,4.585,295.7,545.2,291.4
2023-12-10T06:45:07,2420,42.8014,5.9826,4330,272,186.253,57.039,13.306,36.055,36.635,41.225,4.589,295.7,545.1,291.4
2023-12-10T06:48:08,2420,42.8014,5.9826,4330,272,186.511,57.117,13.305,36.039,36.619,41.203,4.584,295.7,545.1,291.4
2023-12-10T06:51:08,2420,42.8014,5.9826,4330,272,186.450,57.099,13.306,36.042,36.622,41.207,4.585,295.7,545.1,291.4
2023-12-10T06:54:08,2420,42.8014,5.9826,4330,272,186.513,57.117,13.304,36.039,36.619,41.202,4.584,295.7,545.1,291.4
2023-12-10T06:57:07,2420,42.8014,5.9826,4330,272,186.452,57.097,13.304,36.043,36.623,41.212,4.589,295.7,545.1,291.4
2023-12-10T07:00:07,2420,42.8014,5.9826,4330,272,186.598,57.145,13.306,36.033,36.613,41.206,4.592,295.8,545.0,291.4
2023-12-10T07:03:08,2420,42.8014,5.9826,4330,272,186.533,57.125,13.306,36.037,36.617,41.207,4.590,295.7,545.2,291.4
2023-12-10T07:06:07,2420,42.8014,5.9826,4330,272,186.642,57.157,13.305,36.030,36.610,41.197,4.587,295.7,545.1,291.4
2023-12-10T07:09:07,2420,42.8014,5.9826,4330,272,186.476,57.105,13.304,36.042,36.622,41.211,4.589,295.7,545.1,291.4
2023-12-10T07:12:07,2420,42.8014,5.9826,4330,272,186.561,57.130,13.304,36.036,36.616,41.201,4.586,295.7,545.1,291.4
2023-12-10T07:15:07,2420,42.8014,5.9826,4330,272,186.106,56.991,13.303,36.066,36.646,41.233,4.588,295.7,545.1,291.4
2023-12-10T07:18:08,2420,42.8014,5.9826,4330,272,186.314,57.055,13.303,36.053,36.633,41.224,4.592,295.8,545.1,291.4
2023-12-10T07:21:08,2420,42.8014,5.9826,4330,272,186.344,57.065,13.304,36.050,36.630,41.217,4.586,295.7,545.1,291.4
2023-12-10T07:24:08,2420,42.8014,5.9826,4330,272,186.295,57.051,13.305,36.053,36.633,41.222,4.589,295.7,545.1,291.4
2023-12-10T07:27:08,2420,42.8014,5.9826,4330,272,186.492,57.109,13.303,36.041,36.621,41.209,4.588,295.7,545.1,291.4
2023-12-10T07:30:07,2420,42.8014,5.9826,4330,272,186.350,57.068,13.305,36.050,36.630,41.213,4.583,295.7,545.0,291.4
2023-12-10T07:33:07,2420,42.8014,5.9826,4330,272,186.326,57.063,13.307,36.050,36.630,41.217,4.587,295.7,545.1,291.3
2023-12-10T07:36:07,2420,42.8014,5.9826,4330,272,186.339,57.065,13.305,36.050,36.630,41.218,4.588,295.8,545.2,291.4
2023-12-10T07:39:07,2420,42.8014,5.9826,4330,272,186.527,57.122,13.306,36.037,36.617,41.207,4.590,295.7,545.1,291.4
2023-12-10T07:42:07,2420,42.8014,5.9826,4330,272,186.423,57.089,13.304,36.045,36.625,41.215,4.590,295.7,545.1,291.4
2023-12-10T07:45:08,2420,42.8014,5.9826,4330,272,186.274,57.045,13.305,36.055,36.634,41.218,4.584,295.8,545.1,291.4
2023-12-10T07:48:08,2420,42.8014,5.9826,4330,272,186.714,57.180,13.306,36.026,36.606,41.199,4.593,295.7,545.1,291.4
2023-12-10T07:51:08,2420,42.8014,5.9826,4330,272,186.269,57.043,13.305,36.054,36.634,41.221,4.587,295.8,545.0,291.4
2023-12-10T07:54:08,2420,42.8014,5.9826,4330,272,186.361,57.071,13.305,36.049,36.629,41.211,4.582,295.7,545.1,291.4
2023-12-10T07:57:07,2420,42.8014,5.9826,4330,272,186.399,57.084,13.306,36.046,36.626,41.211,4.586,295.7,545.1,291.4
2023-12-10T08:00:07,2420,42.8014,5.9826,4330,272,186.673,57.166,13.305,36.029,36.609,41.196,4.587,295.7,545.1,291.4
2023-12-10T08:03:07,2420,42.8014,5.9826,4330,272,186.471,57.105,13.306,36.041,36.621,41.211,4.590,295.7,545.0,291.4
2023-12-10T08:06:07,2420,42.8014,5.9826,4330,272,186.349,57.067,13.305,36.050,36.630,41.214,4.584,295.7,545.1,291.4
2023-12-10T08:09:07,2420,42.8014,5.9826,4330,272,186.347,57.070,13.308,36.048,36.628,41.215,4.587,295.7,545.1,291.3
2023-12-10T08:12:07,2420,42.8014,5.9826,4330,272,186.120,56.998,13.306,36.064,36.644,41.230,4.587,295.7,545.1,291.4
2023-12-10T08:15:08,2420,42.8014,5.9826,4330,272,186.477,57.106,13.305,36.041,36.621,41.207,4.586,295.8,545.1,291.4
2023-12-10T08:18:08,2420,42.8014,5.9826,4330,272,186.477,57.109,13.307,36.041,36.621,41.217,4.596,295.7,545.1,291.3
2023-12-10T08:21:08,2420,42.8014,5.9826,4330,272,186.254,57.043,13.309,36.054,36.634,41.222,4.588,295.8,545.1,291.3
2023-12-10T08:24:08,2420,42.8014,5.9826,4330,272,186.606,57.147,13.306,36.032,36.612,41.198,4.586,295.8,545.1,291.4
2023-12-10T08:27:07,2420,42.8014,5.9826,4330,272,186.521,57.123,13.307,36.037,36.617,41.205,4.587,295.8,545.1,291.3
2023-12-10T08:30:07,2420,42.8014,5.9826,4330,272,186.140,57.006,13.307,36.062,36.642,41.225,4.584,295.8,545.1,291.3
2023-12-10T08:33:08,2420,42.8014,5.9826,4330,272,186.202,57.023,13.306,36.059,36.638,41.226,4.588,295.7,545.1,291.4
2023-12-10T08:36:07,2420,42.8014,5.9826,4330,272,186.280,57.045,13.304,36.054,36.634,41.220,4.586,295.7,545.2,291.4
2023-12-10T08:39:07,2420,42.8014,5.9826,4330,272,186.260,57.042,13.306,36.054,36.634,41.226,4.592,295.8,545.1,291.3
2023-12-10T08:42:07,2420,42.8014,5.9826,4330,272,186.392,57.080,13.305,36.047,36.627,41.216,4.589,295.8,545.2,291.4
2023-12-10T08:45:07,2420,42.8014,5.9826,4330,272,186.419,57.089,13.305,36.045,36.625,41.212,4.587,295.7,545.1,291.4
2023-12-10T08:48:07,2420,42.8014,5.9826,4330,272,186.452,57.100,13.306,36.042,36.622,41.210,4.588,295.8,545.1,291.4
2023-12-10T08:51:07,2420,42.8014,5.9826,4330,272,186.266,57.042,13.306,36.055,36.634,41.219,4.585,295.8,545.0,291.4
2023-12-10T08:54:07,2420,42.8014,5.9826,4330,272,186.440,57.097,13.306,36.043,36.623,41.209,4.586,295.7,545.1,291.3
2023-12-10T08:57:07,2420,42.8014,5.9826,4330,272,186.304,57.055,13.306,36.052,36.632,41.219,4.587,295.7,545.1,291.3
2023-12-10T09:00:08,2420,42.8014,5.9826,4330,272,186.295,57.052,13.306,36.052,36.632,41.222,4.589,295.7,545.1,291.4
2023-12-10T09:03:07,2420,42.8014,5.9826,4330,272,186.443,57.095,13.304,36.044,36.624,41.216,4.592,295.8,545.1,291.4
2023-12-10T09:06:07,2420,42.8014,5.9826,4330,272,186.333,57.062,13.305,36.051,36.631,41.217,4.586,295.7,545.1,291.4
2023-12-10T09:09:07,2420,42.8014,5.9826,4330,272,186.199,57.021,13.305,36.059,36.639,41.222,4.583,295.7,545.1,291.4
2023-12-10T09:12:07,2420,42.8014,5.9826,4330,272,186.640,57.159,13.307,36.030,36.610,41.201,4.591,295.7,545.1,291.3
2023-12-10T09:15:07,2420,42.8014,5.9826,4330,272,186.316,57.058,13.306,36.052,36.632,41.219,4.588,295.8,545.1,291.4
2023-12-10T09:18:08,2420,42.8014,5.9826,4330,272,186.400,57.083,13.305,36.046,36.626,41.214,4.588,295.7,545.1,291.4
2023-12-10T09:21:08,2420,42.8014,5.9826,4330,272,186.354,57.072,13.308,36.048,36.628,41.214,4.586,295.8,545.1,291.3
2023-12-10T09:24:08,2420,42.8014,5.9826,4330,272,186.230,57.033,13.307,36.056,36.636,41.221,4.585,295.8,545.0,291.3
2023-12-10T09:27:08,2420,42.8014,5.9826,4330,272,186.268,57.044,13.307,36.054,36.634,41.220,4.586,295.7,545.1,291.3
2023-12-10T09:30:08,2420,42.8014,5.9826,4330,272,186.218,57.029,13.307,36.057,36.637,41.224,4.587,295.8,545.1,291.3
2023-12-10T09:33:07,2420,42.8014,5.9826,4330,272,186.308,57.057,13.307,36.052,36.632,41.222,4.591,295.8,545.1,291.3
2023-12-10T09:36:07,2420,42.8014,5.9826,4330,272,186.247,57.037,13.306,36.056,36.635,41.222,4.587,295.7,545.1,291.4
2023-12-10T09:39:08,2420,42.8014,5.9826,4330,272,186.336,57.066,13.307,36.049,36.629,41.211,4.582,295.8,545.1,291.3
2023-12-10T09:42:07,2420,42.8014,5.9826,4330,272,186.327,57.063,13.307,36.050,36.630,41.217,4.587,295.8,545.1,291.3
2023-12-10T09:45:07,2420,42.8014,5.9826,4330,272,186.426,57.092,13.306,36.044,36.624,41.211,4.587,295.7,545.1,291.4
2023-12-10T09:48:07,2420,42.8014,5.9826,4330,272,186.339,57.069,13.309,36.048,36.628,41.216,4.588,295.8,545.1,291.3
2023-12-10T09:51:07,2420,42.8014,5.9826,4330,272,186.387,57.082,13.307,36.046,36.626,41.213,4.587,295.7,545.1,291.3
2023-12-10T09:54:07,2420,42.8014,5.9826,4330,272,186.333,57.070,13.311,36.048,36.628,41.220,4.592,295.8,545.1,291.2
2023-12-10T09:57:08,2420,42.8014,5.9826,4330,272,186.404,57.091,13.310,36.043,36.623,41.212,4.589,295.8,545.0,291.2
2023-12-10T10:00:08,2420,42.8014,5.9826,4330,272,186.304,57.063,13.312,36.049,36.629,41.218,4.589,295.8,545.1,291.1